Station PDVR1 - 8454123 - Port of Davisville, RI Image indicating link to RSS feed of recent meteorological observations for station PDVR1


Conditions at PDVR1 as of
(10:30 pm EDT on 04/14/2024)
0230 GMT on 04/15/2024:
     

Click on the graph icon in the table below to see a time series plot of the last five days of that observation.

5-day plot - Wind Direction Wind Direction (WDIR):SSE ( 160 deg true )
5-day plot - Wind Speed Wind Speed (WSPD): 4 kts
5-day plot - Wind Gust Wind Gust (GST): 7 kts
5-day plot - Atmospheric Pressure Atmospheric Pressure (PRES):29.72 in
5-day plot - Air Temperature Air Temperature (ATMP): 50.0 °F
5-day plot - Dew Point Dew Point (DEWP): 42.3 °F
5-day plot - Wind Chill Wind Chill (CHILL): 48.4 °F
5-day plot - Wind Speed at 10 Meters Wind Speed at 10 meters (WSPD10M): 4 kts
5-day plot - Wind Speed at 20 Meters Wind Speed at 20 meters (WSPD20M): 4 kts
5-day plot -  Wind Speed, Wind Gust and Atmospheric Pressure Combined plot of Wind Speed, Gust, and Air Pressure
NOS Water Level Observation Network Water Level
Previous observations
TIME
(EDT)
5-day plot - Wind Direction
WDIR
 
5-day plot - Wind Speed
WSPD
kts
5-day plot - Wind Gust
GST
kts
5-day plot - Wave Height
WVHT
ft
5-day plot - Dominant Wave Period
DPD
sec
5-day plot - Average Wave Period
APD
sec
5-day plot - Mean Wave Direction
MWD
 
5-day plot - Atmospheric Pressure
PRES
in
5-day plot - Pressure Tendency
PTDY
in
5-day plot - Air Temperature
ATMP
°F
5-day plot - Water Temperature
WTMP
°F
5-day plot - Dew Point
DEWP
°F
5-day plot - Salinity
SAL
psu
5-day plot - Visibility
VIS
nmi
5-day plot - Tide (above MLLW)
TIDE
ft
2024-04-14 10:24 pmSSE 5 8----29.71- 50.0- 42.1---
2024-04-14 10:18 pmSSE 5 8----29.72- 50.2- 41.9---
2024-04-14 10:12 pmSSE 5 9----29.72- 50.2- 41.7---
2024-04-14 10:06 pm S 5 8----29.73- 50.4- 41.7---
2024-04-14 10:00 pmSSE 6 11----29.73-0.02 50.4- 41.7---
2024-04-14 09:54 pmSSE 6 12----29.72- 50.4- 42.3---
2024-04-14 09:48 pmSSE 7 13----29.72- 50.2- 41.9---
2024-04-14 09:42 pmSSE 7 11----29.73- 50.2- 42.1---
2024-04-14 09:36 pmSSE 8 13----29.73- 50.4- 41.7---
2024-04-14 09:30 pm SE 6 10----29.73- 50.4- 41.9---
2024-04-14 09:24 pm SE 7 14----29.72- 50.5- 41.7---
2024-04-14 09:18 pm SE 7 11----29.72- 50.2- 42.1---
2024-04-14 09:12 pm SE 9 13----29.72- 50.4- 41.4---
2024-04-14 09:06 pm SE 11 12----29.71- 50.4- 41.0---
2024-04-14 09:00 pmESE 11 14----29.71-0.08 50.2- 41.7---
2024-04-14 08:54 pmESE 12 16----29.71- 50.2- 41.4---
2024-04-14 08:48 pmESE 11 14----29.72-------
2024-04-14 08:42 pmESE 12 14----29.72-------
2024-04-14 08:36 pmESE 11 13----29.71-------
2024-04-14 08:30 pm-------29.72- 50.2- 41.5---
2024-04-14 08:24 pm-------29.72- 50.0- 41.9---
2024-04-14 08:18 pmESE 10 11------ 50.0- 41.9---
2024-04-14 08:12 pmESE 9 12------ 50.0- 41.9---
2024-04-14 08:06 pmESE 10 12------ 50.0- 42.1---
2024-04-14 08:00 pmESE 9 12----29.72-0.04 49.8- 42.4---
2024-04-14 07:54 pmESE 11 13----29.72- 50.0- 42.1---
2024-04-14 07:48 pmESE 13 15----29.72- 50.2- 42.1---
2024-04-14 07:42 pmESE 10 14----29.72- 50.0- 42.6---
2024-04-14 07:36 pmESE 11 14----29.72- 49.8- 42.8---
2024-04-14 07:30 pmESE 13 16----29.72- 49.8- 43.0---
2024-04-14 07:24 pmESE 12 13----29.71- 49.6- 43.5---
2024-04-14 07:00 pmESE 8 9----29.75+0.00------
2024-04-14 06:54 pmESE 8 10----29.76-------
2024-04-14 06:48 pmESE 9 11----29.77- 49.6- 44.2---
2024-04-14 06:42 pmESE 9 11----29.76- 50.0- 44.2---
2024-04-14 06:36 pmESE 8 10----29.76- 49.8- 43.9---
2024-04-14 06:30 pm E 6 8----29.78- 49.6- 44.4---
2024-04-14 06:24 pm E 4 5----29.79- 48.9- 44.2---
2024-04-14 06:18 pm SE 2 3----29.80- 49.5- 44.4---
2024-04-14 06:12 pmSSE 1 3----29.81- 49.5- 44.4---
2024-04-14 06:06 pm SE 2 4----29.80- 49.5- 44.1---
2024-04-14 06:00 pmESE 5 10----29.79+0.01 49.3- 43.5---
2024-04-14 05:54 pm E 10 14----29.76- 49.5- 43.7---
2024-04-14 05:48 pm E 11 12----29.74-------
2024-04-14 05:42 pm E 10 11----29.75-------
2024-04-14 05:36 pm E 8 8----29.77-------
2024-04-14 05:30 pmESE 7 8----29.77-------
2024-04-14 05:24 pm E 9 9----29.76-------
2024-04-14 05:18 pm E 8 9----29.77- 50.4- 43.0---
2024-04-14 05:12 pm E 8 9----29.76- 50.9- 42.8---
2024-04-14 05:06 pm E 8 11----29.76- 51.4- 42.8---
2024-04-14 05:00 pmESE 9 17----29.77-0.08 52.5- 42.3---
2024-04-14 04:54 pm SE 11 16----29.77- 52.9- 41.7---
2024-04-14 04:48 pm SE 14 19----29.76- 53.1- 41.0---
2024-04-14 04:42 pm SE 13 18----29.76- 54.1- 40.6---
2024-04-14 04:36 pm SE 13 19----29.78- 54.7- 40.5---
2024-04-14 04:30 pm SE 12 18----29.78- 55.4- 39.7---
2024-04-14 04:24 pmSSE 12 16----29.78- 55.6- 39.7---
2024-04-14 04:18 pmSSE 11 17----29.78- 56.1- 39.7---
2024-04-14 04:12 pmSSE 9 18----29.78- 56.3- 39.9---
2024-04-14 04:06 pmSSE 13 20----29.77- 56.5- 38.1---
2024-04-14 04:00 pmESE 15 18----29.76-0.11 54.5- 40.5---
2024-04-14 03:54 pmESE 15 18----29.77- 53.4- 41.2---
2024-04-14 03:48 pmESE 15 18----29.75- 53.4- 40.8---
2024-04-14 03:42 pm E 16 20----29.76- 53.2- 41.0---
2024-04-14 03:36 pmESE 14 19----29.77- 53.8- 40.8---
2024-04-14 03:30 pm E 14 18----29.78- 53.8- 39.9---
2024-04-14 03:24 pm E 16 19----29.77- 52.5- 39.7---
2024-04-14 03:18 pm E 17 19----29.78- 53.1- 39.7---
2024-04-14 03:12 pm E 12 17----29.78- 53.6- 39.4---
2024-04-14 03:06 pm E 9 11----29.78- 52.7- 39.7---
2024-04-14 03:00 pm E 11 12----29.78-0.10------
2024-04-14 02:54 pm E 12 13----29.79-------
2024-04-14 02:48 pm E 7 8----29.80- 55.6- 35.8---
2024-04-14 02:42 pmSSE 5 6----29.80- 56.7- 37.2---
2024-04-14 02:36 pmESE 6 8----29.81- 55.6- 34.7---
2024-04-14 02:30 pmESE 6 8----29.82- 55.2- 37.2---
2024-04-14 02:24 pm SE 6 8----29.83- 54.9- 37.6---
2024-04-14 02:18 pm SE 5 7----29.83- 55.0- 37.9---
2024-04-14 02:12 pm SE 4 6----29.84- 55.2- 35.8---
2024-04-14 02:06 pmSSE 3 7----29.84- 54.7- 36.3---
2024-04-14 02:00 pm S 5 10----29.85-0.04 55.2- 34.2---
2024-04-14 01:54 pmSSE 5 10----29.86- 55.6- 34.2---
2024-04-14 01:48 pmSSE 5 10----29.86- 55.6- 33.6---
2024-04-14 01:42 pmSSE 6 10----29.86- 55.4- 33.6---
2024-04-14 01:36 pmSSE 6 9----29.86- 55.2- 35.4---
2024-04-14 01:30 pmSSE 4 8----29.86- 55.4- 35.4---
2024-04-14 01:24 pmSSE 6 10----29.86- 55.4- 34.3---
2024-04-14 01:18 pmSSE 8 15----29.86- 55.2- 33.4---
2024-04-14 01:12 pmSSE 7 12----29.87- 55.8- 33.8---
2024-04-14 01:06 pmSSE 7 14----29.87- 56.3- 33.8---
2024-04-14 01:00 pmSSE 10 17----29.87-0.03 56.5- 31.8---
2024-04-14 12:54 pmSSE 11 17----29.87- 56.8- 31.8---
2024-04-14 12:48 pm S 9 16----29.87-------
2024-04-14 12:42 pmSSE 7 16----29.87-------
2024-04-14 12:36 pmSSE 14 18----29.86-------
2024-04-14 12:30 pm SE 19 24----29.86-------
2024-04-14 12:24 pm SE 16 22----29.86-------
2024-04-14 12:18 pm SE 17 22----29.86- 55.9- 34.3---
2024-04-14 12:12 pm SE 11 14----29.87- 57.7- 35.2---
2024-04-14 12:06 pm S 9 15----29.87- 58.5- 32.4---
2024-04-14 12:00 pmSSE 5 14----29.88-0.02 59.0- 32.5---
2024-04-14 11:54 amSSE 8 14----29.88- 58.8- 32.7---
2024-04-14 11:48 amSSE 5 14----29.88- 59.4- 33.8---
2024-04-14 11:42 am SE 6 12----29.88- 58.6- 32.5---
2024-04-14 11:36 am SE 9 16----29.88- 57.6- 34.3---
2024-04-14 11:30 amSSW 5 12----29.88-------
2024-04-14 11:24 am S 8 15----29.88-------
2024-04-14 11:18 amSSE 6 14----29.89-------
2024-04-14 11:12 amSSE 7 15----29.88-------
2024-04-14 11:06 am S 5 11----29.89-------
2024-04-14 11:00 am S 5 10----29.89+0.00 56.8- 32.9---
2024-04-14 10:54 am S 7 13----29.89- 56.8- 32.0---
2024-04-14 10:48 amSSW 7 12----29.89- 56.5- 32.4---
2024-04-14 10:42 am S 9 13----29.89- 55.9- 32.0---
2024-04-14 10:36 am S 9 15----29.89- 55.4- 31.8---
2024-04-14 10:30 am S 8 14----29.89- 55.9- 32.5---
2024-04-14 10:24 am S 6 12----29.89- 55.8- 32.7---
2024-04-14 10:18 amSSE 8 13----29.90- 55.6- 32.4---
2024-04-14 10:12 amSSE 6 14----29.89- 55.2- 31.6---
2024-04-14 10:06 amSSW 7 15----29.89- 55.9- 30.9---
2024-04-14 10:00 am S 10 17----29.90+0.02------
2024-04-14 09:54 am S 7 12----29.90-------
2024-04-14 09:48 amSSW 6 13----29.90- 55.4- 32.0---
2024-04-14 09:42 am S 8 12----29.90- 54.9- 32.4---
2024-04-14 09:36 am S 8 14----29.90- 54.1- 32.5---
2024-04-14 09:30 am S 8 14----29.90-------
2024-04-14 09:24 am S 9 13----29.90-------
2024-04-14 09:18 am S 7 13----29.90- 53.4- 32.9---
2024-04-14 09:12 am S 7 12----29.90- 52.5- 33.1---
2024-04-14 09:06 am S 8 13----29.90- 52.0- 32.5---
2024-04-14 09:00 am S 11 15----29.90- 51.8- 32.5---
2024-04-14 08:54 am S 8 17----29.90- 51.8- 32.4---
2024-04-14 08:48 am-------29.90- 51.6- 32.5---
2024-04-14 08:42 am-------29.90- 51.8- 32.5---
2024-04-14 08:36 am-------29.90- 51.6- 32.5---
2024-04-14 08:30 am S 7 13----29.89-------
2024-04-14 08:24 am S 7 14----29.89-------
2024-04-14 08:18 am S 10 14----29.89- 50.5- 33.3---
2024-04-14 08:12 am S 7 17----29.89- 50.5- 33.8---
2024-04-14 08:06 am S 6 10----29.89- 50.2- 33.3---
2024-04-14 08:00 am S 6 12----29.89+0.06------
2024-04-14 07:54 am S 9 13----29.89-------
2024-04-14 07:48 am S 7 11----29.89-------
2024-04-14 07:42 am S 7 10----29.89-------
2024-04-14 07:36 am S 5 9----29.89-------
2024-04-14 07:30 am S 3 9----29.88- 47.1- 34.0---
2024-04-14 07:24 amSSE 5 9----29.88- 46.9- 33.8---
2024-04-14 07:18 am S 5 9----29.88-------
2024-04-14 07:12 am S 6 9----29.88-------
2024-04-14 07:06 amSSE 5 7----29.87-------
2024-04-14 07:00 amSSE 3 7----29.87+0.07 46.8- 33.6---
2024-04-14 06:54 am S 5 8----29.87- 46.6- 33.3---
2024-04-14 06:48 am S 4 7----29.87-------
2024-04-14 06:42 am S 3 6----29.87-------
2024-04-14 06:36 amSSE 4 7----29.87-------
2024-04-14 06:30 am S 3 7----29.86- 45.1- 33.3---
2024-04-14 06:24 amSSE 3 5----29.86- 44.8- 33.1---
2024-04-14 06:18 amSSE 3 6----29.86- 45.0- 33.1---
2024-04-14 06:12 amSSE 3 5----29.86- 45.0- 32.9---
2024-04-14 06:06 am S 3 6----29.86- 45.0- 33.1---
2024-04-14 06:00 am S 4 7------ 45.0- 32.9---
2024-04-14 05:54 am S 3 8------ 44.8- 33.3---
2024-04-14 05:48 am S 4 7------ 44.4- 33.4---
2024-04-14 05:42 amSSE 4 6------ 44.2- 33.8---
2024-04-14 05:36 amSSE 3 4------ 44.2- 34.5---
2024-04-14 05:30 am SE 2 4----29.85-------
2024-04-14 05:24 am SE 4 5----29.84-------
2024-04-14 05:18 amSSE 2 4----29.84- 43.7- 34.5---
2024-04-14 05:12 am SE 2 4----29.84- 43.5- 35.1---
2024-04-14 05:06 am SE 3 4----29.84- 43.2- 34.9---
2024-04-14 05:00 am SE 2 4----29.83+0.07 43.3- 34.7---
2024-04-14 04:54 amSSE 3 4----29.83- 43.3- 34.5---
2024-04-14 04:48 am SE 2 4----29.83- 43.7- 34.5---
2024-04-14 04:42 amSSE 3 3----29.82- 44.4- 34.3---
2024-04-14 04:36 amSSE 2 4----29.82- 44.8- 34.0---
2024-04-14 04:30 am S 3 5----29.82- 45.0- 34.2---
2024-04-14 04:24 am S 3 5----29.82- 44.8- 34.3---
2024-04-14 04:18 am S 3 5----29.82- 44.8- 34.2---
2024-04-14 04:12 am S 3 5----29.81- 44.4- 34.7---
2024-04-14 04:06 amSSE 3 4----29.81- 44.4- 34.9---
2024-04-14 04:00 amSSE 3 5----29.80+0.06 45.0- 35.1---
2024-04-14 03:54 am SE 2 8----29.80- 45.1- 35.8---
2024-04-14 03:48 am SE 3 6----29.80- 45.1- 35.4---
2024-04-14 03:42 am SE 4 6----29.79- 45.1- 35.1---
2024-04-14 03:36 amSSE 4 6----29.79- 45.3- 35.2---
2024-04-14 03:30 amSSE 4 7----29.79- 45.5- 35.4---
2024-04-14 03:24 amSSE 4 7----29.79- 45.5- 35.2---
2024-04-14 03:18 amSSE 5 7----29.78- 45.7- 35.1---
2024-04-14 03:12 amSSE 4 9----29.78- 45.9- 35.1---
2024-04-14 03:06 am S 4 7----29.78- 45.9- 35.1---
2024-04-14 03:00 am S 4 8----29.78+0.04 46.0- 35.1---
2024-04-14 02:54 am S 4 7----29.78- 46.0- 35.1---
2024-04-14 02:48 am S 5 11----29.77- 46.2- 34.9---
2024-04-14 02:42 am S 4 7----29.77- 46.2- 35.2---
2024-04-14 02:36 amSSE 3 7----29.77- 46.2- 35.4---
2024-04-14 02:30 amSSE 5 9----29.77- 46.6- 35.1---
2024-04-14 02:24 amSSE 5 7----29.76- 46.6- 35.2---
2024-04-14 02:18 amSSE 5 8----29.76- 46.6- 35.1---
2024-04-14 02:12 am S 6 11----29.76- 46.8- 35.2---
2024-04-14 02:06 amSSE 4 9----29.76- 46.6- 35.1---
2024-04-14 02:00 am S 4 7----29.76+0.04 46.6- 35.1---
2024-04-14 01:54 am S 3 8----29.76- 46.6- 35.1---
2024-04-14 01:48 am S 5 8----29.76- 46.8- 35.1---
2024-04-14 01:42 amSSE 4 9----29.76- 46.8- 35.2---
2024-04-14 01:36 amSSE 4 10----29.76- 46.9- 35.2---
2024-04-14 01:30 am S 5 10----29.76- 47.1- 35.2---
2024-04-14 01:24 am S 5 11----29.76- 47.3- 35.1---
2024-04-14 01:18 am S 7 13----29.75- 47.1- 35.2---
2024-04-14 01:12 am S 7 12----29.75- 47.3- 35.2---
2024-04-14 01:06 am S 6 11----29.75- 47.3- 35.4---
2024-04-14 01:00 am S 7 12----29.75+0.04 47.3- 35.4---
2024-04-14 12:54 am S 6 10----29.75- 47.3- 35.4---
2024-04-14 12:48 am S 6 12----29.75- 47.3- 35.2---
2024-04-14 12:42 am S 5 14----29.75- 47.1- 35.4---
2024-04-14 12:36 am S 7 12----29.75- 47.3- 35.6---
2024-04-14 12:30 am S 7 13----29.74- 47.3- 35.8---
2024-04-14 12:24 am S 7 12----29.74- 47.1- 35.6---
2024-04-14 12:18 amSSE 6 13----29.74- 47.1- 35.8---
2024-04-14 12:12 am S 7 14----29.74- 47.1- 35.8---
2024-04-14 12:06 am S 8 12----29.74- 46.9- 36.0---
2024-04-14 12:00 am S 8 13----29.74+0.05 46.9- 36.1---
2024-04-13 11:54 pmSSE 7 14----29.74- 46.8- 36.3---
2024-04-13 11:48 pm S 9 16----29.73- 46.8- 36.3---
2024-04-13 11:42 pm S 8 15----29.74- 46.8- 36.5---
2024-04-13 11:36 pm S 9 16----29.73- 46.8- 36.7---
2024-04-13 11:30 pm S 8 16----29.73- 46.8- 36.7---
2024-04-13 11:24 pm S 7 12----29.73- 46.8- 36.9---
2024-04-13 11:18 pm S 9 16----29.73- 46.9- 36.9---
2024-04-13 11:12 pm S 9 15----29.73- 46.9- 36.7---
2024-04-13 11:06 pm S 9 12----29.72- 46.9- 36.5---
2024-04-13 11:00 pm S 8 19----29.72+0.07 46.8- 36.3---
2024-04-13 10:54 pm S 10 17----29.72- 46.9- 36.3---